This demonstration page uses our WeatherBlox Daily Observations layout. Learn more.

Left ArrowRight Arrow

53.62937, 11.41316

Hourly Observations for May 24, 2019

Temp ( °F °C ) Dew Point ( °F °C ) Humidity (%) Winds ( mph kmh ) Pressure ( in mb ) Visibility ( mi km ) Precip ( " mm )
6:50 am 06:50 Mostly Sunny 52 11 46 8 82 82 WSW 2 4 29.91 1013 7 11 N/A
7:20 am 07:20 Mostly Sunny 54 12 45 7 72 72 WSW 2 4 29.94 1014 7 11 N/A
7:50 am 07:50 Mostly Sunny 55 13 46 8 72 72 SSW 3 6 29.94 1014 7 11 N/A
8:20 am 08:20 Mostly Sunny 59 15 48 9 68 68 WSW 6 9 29.94 1014 7 11 N/A
8:50 am 08:50 Mostly Sunny 61 16 46 8 59 59 WSW 7 11 29.91 1013 7 11 N/A
9:20 am 09:20 Mostly Sunny 63 17 45 7 52 52 WSW 10 17 29.91 1013 7 11 N/A
9:50 am 09:50 Mostly Sunny 63 17 46 8 56 56 WSW 9 15 29.91 1013 7 11 N/A
10:20 am 10:20 Mostly Sunny 64 18 46 8 52 52 SW 10 17 29.91 1013 7 11 N/A
10:50 am 10:50 Mostly Sunny 66 19 46 8 49 49 WSW 12 19 29.91 1013 7 11 N/A
11:20 am 11:20 Mostly Sunny 66 19 48 9 52 52 WSW 13 20 29.88 1012 7 11 N/A
11:50 am 11:50 Mostly Sunny 68 20 48 9 49 49 SW 13 20 29.88 1012 7 11 N/A
12:20 pm 12:20 Mostly Sunny 70 21 46 8 43 43 WSW 15 24 29.88 1012 7 11 N/A
12:50 pm 12:50 Mostly Sunny 70 21 48 9 46 46 WSW 14 22 29.88 1012 7 11 N/A
1:20 pm 13:20 Mostly Sunny 70 21 46 8 43 43 WSW 17 28 29.85 1011 7 11 N/A
1:50 pm 13:50 Mostly Sunny 70 21 48 9 46 46 WSW 16 26 29.85 1011 7 11 N/A
2:20 pm 14:20 Mostly Sunny 70 21 46 8 43 43 WSW 15 24 29.85 1011 7 11 N/A
2:50 pm 14:50 Mostly Sunny 68 20 48 9 49 49 W 8 13 29.85 1011 7 11 N/A
3:20 pm 15:20 Mostly Sunny 70 21 50 10 50 50 W 9 15 29.85 1011 7 11 N/A
3:50 pm 15:50 Mostly Sunny 70 21 52 11 53 53 W 10 17 29.85 1011 7 11 N/A
4:20 pm 16:20 Mostly Sunny 70 21 52 11 53 53 W 9 15 29.85 1011 7 11 N/A
4:50 pm 16:50 Mostly Sunny 70 21 52 11 53 53 W 12 19 29.85 1011 7 11 N/A
5:20 pm 17:20 Mostly Sunny 68 20 48 9 49 49 W 10 17 29.85 1011 7 11 N/A
5:50 pm 17:50 Mostly Sunny 66 19 45 7 46 46 W 12 19 29.85 1011 7 11 N/A
6:20 pm 18:20 Mostly Sunny 66 19 43 6 43 43 W 10 17 29.85 1011 7 11 N/A
6:50 pm 18:50 Mostly Sunny 64 18 43 6 46 46 W 10 17 29.85 1011 7 11 N/A
7:20 pm 19:20 Mostly Sunny 63 17 43 6 49 49 W 12 19 29.85 1011 7 11 N/A
7:50 pm 19:50 Mostly Sunny 61 16 45 7 55 55 W 9 15 29.85 1011 7 11 N/A
8:20 pm 20:20 Mostly Sunny 59 15 45 7 59 59 W 9 15 29.88 1012 7 11 N/A
8:50 pm 20:50 Mostly Sunny 57 14 46 8 67 67 W 9 15 29.88 1012 7 11 N/A

Powered by AerisWeather